CST,Max TemperatureF,Mean TemperatureF,Min TemperatureF,Max Dew PointF,MeanDew PointF,Min DewpointF,Max Humidity, Mean Humidity, Min Humidity, Max Sea Level PressureIn, Mean Sea Level PressureIn, Min Sea Level PressureIn, Max VisibilityMiles, Mean VisibilityMiles, Min VisibilityMiles, Max Wind SpeedMPH, Mean Wind SpeedMPH, Max Gust SpeedMPH,PrecipitationIn, CloudCover, Events, WindDirDegrees
2012-12-1,53,45,37,45,37,30,87,75,66,30.04,29.83,29.71,5,3,0,22,13,26,0.00,2,,173
2012-12-2,57,42,26,43,33,21,87,69,36,29.99,29.90,29.80,10,6,0,26,6,32,0.00,1,Fog,160
2012-12-3,62,50,37,54,40,25,82,67,44,29.96,29.73,29.57,10,6,1,23,17,29,0.00,3,,212
2012-12-4,39,29,19,25,16,9,69,54,33,30.37,30.16,29.95,10,10,10,16,8,22,0.00,0,,272
2012-12-5,42,28,15,21,12,7,73,45,24,30.37,30.16,29.89,10,10,10,29,10,37,0.00,1,,132
2012-12-6,46,40,33,36,29,21,71,60,46,29.98,29.87,29.81,10,10,10,26,17,37,0.12,3,Rain,252
2012-12-7,35,30,24,25,21,18,80,68,52,30.01,29.99,29.97,10,8,2,14,5,16,0.00,2,Snow,9
2012-12-8,37,32,26,27,24,19,86,72,60,30.04,29.99,29.95,10,7,2,13,5,18,0.00,4,Snow,96
2012-12-9,35,32,26,30,28,19,86,78,65,29.96,29.84,29.76,10,4,0,18,11,24,0.08,7,Snow,91
2012-12-10,24,12,1,18,3,-8,79,71,66,29.94,29.89,29.81,10,10,7,20,11,20,0.00,5,Snow,251
2012-12-11,24,18,12,19,13,5,86,74,63,29.97,29.86,29.77,10,8,0,13,8,,0.00,6,Snow,214
2012-12-12,44,32,21,21,19,16,86,52,37,29.96,29.89,29.82,10,10,7,23,13,30,0.00,2,,160
2012-12-13,39,28,17,21,16,10,80,56,33,30.09,29.98,29.91,10,9,5,18,10,31,0.00,0,,198
2012-12-14,42,28,15,28,22,10,80,64,49,30.09,29.95,29.76,10,9,3,18,6,24,0.00,1,,123
2012-12-15,42,38,35,37,35,28,87,79,57,29.75,29.56,29.47,10,5,0,16,10,22,0.30,8,Rain-Snow,131
2012-12-16,35,28,21,30,20,16,86,81,74,29.78,29.69,29.55,10,4,0,15,11,20,0.00,8,Snow,285
2012-12-17,28,24,21,23,19,16,86,79,74,29.78,29.71,29.66,10,6,3,8,3,,0.00,8,Snow,17
2012-12-18,33,29,26,27,23,21,86,78,74,29.83,29.67,29.58,5,4,2,12,5,,0.00,6,,100
2012-12-19,35,32,28,28,27,25,86,79,75,29.98,29.92,29.83,7,4,0,13,7,18,0.00,8,Snow,210
2012-12-20,32,24,14,27,16,7,80,73,64,30.01,29.85,29.77,10,5,2,31,18,39,0.00,7,Rain-Snow,328
2012-12-21,17,10,3,7,2,-4,79,69,58,30.23,30.17,30.02,10,10,5,17,10,,0.00,1,Snow,280
2012-12-22,26,18,10,14,8,1,79,63,54,30.16,30.00,29.92,10,10,10,17,7,,0.00,0,,163
2012-12-23,19,16,12,14,8,5,80,70,63,30.08,30.02,29.94,10,9,4,14,6,20,0.00,2,,30
2012-12-24,21,11,1,10,5,-6,79,66,54,30.23,30.05,29.93,10,10,7,16,6,18,0.00,3,Snow,337
2012-12-25,12,6,0,1,-4,-9,72,67,57,30.42,30.37,30.24,10,10,10,12,5,,0.00,0,,308
2012-12-26,19,10,1,5,0,-6,72,63,49,30.34,30.25,30.19,10,10,10,8,4,,0.00,0,,4
2012-12-27,23,13,3,16,8,-4,80,71,59,30.20,30.15,30.08,10,7,1,9,2,,0.00,4,Snow,77
2012-12-28,24,20,17,16,15,10,80,76,69,30.08,30.00,29.94,10,5,1,10,6,,0.01,7,Snow,40
2012-12-29,21,10,0,16,6,-8,86,74,66,30.16,30.06,29.98,10,7,2,13,8,,0.00,5,Snow,253
2012-12-30,28,14,1,16,7,-8,80,69,55,30.17,30.03,29.88,10,8,0,20,7,25,0.00,1,Snow,174
2012-12-31,19,7,-7,10,-1,-17,79,62,49,30.22,30.12,29.97,10,10,7,17,9,,0.00,0,,298